Regional Weather Roundup
Issued by NWS Jackson, KY

Home | Current Version | Previous Version | Graphics & Text | Print | Product List | Glossary On
Versions: 1 2 3 4 5 6 7 8 9 10 11 12 13 14 15 16 17 18 19 20 21 22 23 24 25 26 27 28 29 30 31 32 33 34 35 36 37 38 39 40 41 42 43 44 45 46 47 48 49 50
000
ASUS43 KJKL 292110
RWRJKL

EAST KENTUCKY HOURLY WEATHER ROUNDUP
NATIONAL WEATHER SERVICE JACKSON KY
500 PM EDT WED JUL 29 2015

NOTE: "FAIR" INDICATES FEW OR NO CLOUDS BELOW 12,000 FEET WITH
NO SIGNIFICANT WEATHER AND/OR OBSTRUCTIONS TO VISIBILITY.

* THESE REPORTS ARE NOT UNDER NWS QUALITY CONTROL AND MAY NOT
  REPORT WEATHER SUCH AS PRECIPITATION AND FOG.

KYZ079-080-083-085-087-088-110-112-115-119-120-292200
...EASTERN KENTUCKY...

CITY           SKY/WX    TMP DP  RH WIND       PRES   REMARKS
JACKSON        MOSUNNY   87  72  60 CALM      29.99F HX  93
LONDON         MOSUNNY   90  70  51 VRB3      30.00F HX  95
SOMERSET*      CLOUDY    88  72  58 CALM      29.99F HX  94
MONTICELLO*    MOSUNNY   93  76  57 CALM      30.00F HX 105
MIDDLESBORO*   MOSUNNY   89  72  56 N5        29.99F HX  96
HAZARD APT*    PTCLDY    88  72  58 W3        29.99F HX  94
BLACK MTN*       N/A     79  70  73 NW2         N/A
PIKEVILLE APT* SUNNY     86  70  58 CALM      29.99F HX  90
BIG SANDY*     CLEAR     88  71  57 W3        29.97F HX  94
MOREHEAD APT*  CLEAR     90  72  55 S7        29.98F HX  96
$$

KYZ035-036-041-042-044-050-067-078-099-292200
...CENTRAL KENTUCKY...

CITY           SKY/WX    TMP DP  RH WIND       PRES   REMARKS
MT STERLING*   MOSUNNY   90  73  58 W6        29.97F HX  98
FLEMING/MASON* SUNNY     86  73  66 SW5       29.96F HX  93
DANVILLE*      LGT RAIN  77  73  88 CALM      30.00F
RICHMOND*      CLOUDY    82  73  74 W7        29.98F
LEXINGTON      CLOUDY    78  73  84 S6        29.98S
FRANKFORT      PTSUNNY   82  76  81 SW5       29.95F
$$

KYZ091>093-OHZ055-061-077-WVZ005-015-034-035-042-292200
...SOUTHERN OHIO/WEST VIRGINIA...

CITY           SKY/WX    TMP DP  RH WIND       PRES   REMARKS
COVINGTON      CLOUDY    77  74  90 S3        29.95F
COLUMBUS       PTSUNNY   88  70  55 W9        29.92F HX  93
DAYTON         TSTM      76  75  97 SE7       29.97R
WILMINGTON     TSTM      74  70  87 SW10G22   29.96R FOG
HUNTINGTON     PTSUNNY   91  72  53 W6        29.93F HX  98
CHARLESTON     PTSUNNY   87  73  62 S7        29.94F HX  94
PINEVILLE*     PTSUNNY   90  71  52 MISG      30.05F HX  96
BECKLEY        PTSUNNY   83  66  56 CALM      30.06F
BLUEFIELD      CLOUDY    76  68  76 VRB7      30.10S
$$

VAZ002-007-008-TNZ017-027-036-066-071-292200
...SOUTHWEST VIRGINIA/EAST TENNESSEE...

CITY           SKY/WX    TMP DP  RH WIND       PRES   REMARKS
WISE*          MOSUNNY   88  63  42 NW3       30.09F
ABINGDON*      SUNNY     88  66  48 CALM      30.04F HX  90
BRISTOL        MOSUNNY   90  69  50 VRB6      30.00F HX  94
KNOXVILLE      PTSUNNY   92  68  45 N8        29.97F HX  96
OAK RIDGE      MOSUNNY   91  71  51 E5        29.98F HX  97
CROSSVILLE     MOSUNNY   89  71  55 N8        30.04F HX  95
NASHVILLE      PTSUNNY   92  76  59 CALM      29.97F HX 104
$$

...KEY TO REMARKS...
VSB - VISIBILITY IN MILES
WCI - WIND CHILL INDEX
HX  - HEAT INDEX

$$



USA.gov is the U.S. government's official web portal to all federal, state and local government web resources and services.